Starlink 2408

operational
NORAD ID: 47823 Int'l Des: 2021-018 Owner: SPXS Country: US Constellation: starlink
LEOCIRCULARSTARLINK_TYPE

About Starlink 2408

Description loading...

Live Position

Loading 3D Globe...

Upcoming Passes

Altitude History

Altitude vs Time

uPlot chart will show altitude changes over time

Two-Line Element Set

1 47823U 21018AN 26036.28938403 .00001289 00000-0 10540-3 0 9993
2 47823 53.0546 37.0604 0001338 92.1928 267.9214 15.06403404271711
Epoch: Feb 5, 2026 • Age: 18 hours

Current Status

Altitude 548.3 km
Velocity 7.59 km/s
Sub-Earth Point 29.48°N, 86.82°W
Launch Date Mar 11, 2021
Age 4.9 years
Type internet

Technical Details

Classification Payload
Mass 260.00 kg
Dry Mass 248.00 kg
Total Mass 260.00 kg
Length 0.20 m
Diameter 2.80 m
Span 9.00 m
Shape Box + pan
Manufacturer SPXS
Bus Type Starlink
Phase Status In Orbit
Owner/State SPXS/US

Large Constellations

Loading constellations...